Location: Newark
(50.8086°N, 4.3114°E)
Time: 16:54:18
(UTC+00:00)

XW-2D - Pass Details

Date: 23 January 2020
Orbit: 506 x 528 km, 97.5° (Epoch: 17 February)

Event Time Altitude Azimuth Distance (km) Brightness Sun altitude
Rises 04:41:34 0° 28° (NNE) 2,635 ? -26.5°
Reaches altitude 10° 04:44:20 10° 50° (NE) 1,738 ? -26.0°
Maximum altitude 04:46:44 16° 90° (E) 1,384 ? -25.6°
Drops below altitude 10° 04:49:07 10° 131° (SE) 1,724 ? -25.3°
Sets 04:51:50 0° 153° (SSE) 2,601 ? -24.8°
